Location: Colleton State Park
(33.0623°N, 80.6164°W)
Time: 11:16:27
(UTC-04:00)

Tiangong 2 - Visible Passes

Search period start: 26 May 2019 00:00
Search period end: 05 June 2019 00:00
Orbit: 379 x 387 km, 42.8° (Epoch: 26 May)

Date Brightness Start Highest point End Pass type
(mag) Time Alt. Az. Time Alt. Az. Time Alt. Az.
26 May 3.8 21:59:01 10° NNW 22:00:58 15° N 22:02:55 10° NE visible
27 May 3.9 20:58:54 10° NNW 21:00:38 14° N 21:02:22 10° NE visible
27 May 3.1 22:35:21 10° NW 22:37:41 25° N 22:37:41 25° N visible
28 May 3.4 21:35:29 10° NW 21:37:48 19° NNE 21:40:06 10° ENE visible
28 May 4.1 23:11:42 10° WNW 23:12:23 15° WNW 23:12:23 15° WNW visible
29 May 1.9 22:11:45 10° NW 22:14:44 40° NNE 22:14:56 39° NE visible
30 May 2.8 21:11:53 10° NW 21:14:33 25° NNE 21:17:13 10° ENE visible
30 May 3.4 22:48:20 10° WNW 22:49:40 22° W 22:49:40 22° W visible
31 May 1.0 21:48:13 10° WNW 21:51:21 76° NNE 21:52:15 42° ESE visible
01 Jun 2.0 20:48:15 10° NW 20:51:14 39° NNE 20:54:12 10° E visible
01 Jun 3.0 22:25:13 10° W 22:27:03 22° WSW 22:27:03 22° WSW visible
02 Jun 1.5 21:24:48 10° WNW 21:27:51 52° SW 21:29:44 20° SE visible
03 Jun 3.6 22:02:50 10° WSW 22:04:10 12° SW 22:04:38 12° SSW visible
04 Jun 2.8 21:01:38 10° W 21:04:16 25° SW 21:06:54 10° SSE visible
